Welcome to the New NWS' Forecast!
Most changes are behind the scenes, but click here for differences you might notice.
Latest weather observations around

Merkel Field Sylacauga Municipal Airport (KSCD)

Using International System of Units (Switch to English Units)
Date/ Time (CDT) Wind (kph) Vis. (km) Weather Sky Cond. Temp (°C) Rel. Humidity Wind Chill (°C) Heat Index (°C) Pressure Precip. (cm)
Air Dwpt 6 hour Altimeter (hPa) Sea level (hPa) 1 hr 3 hr 6 hr
Max Min
Oct 17 23:55 ENE 9 16.09 Mostly Cloudy SCT060 SCT080 BKN110 16 11     72%     1026.4        
Oct 17 23:35 ENE 9 16.09 Cloudy BKN065 OVC080 17 11     71%     1026.4        
Oct 17 23:15 NE 5 16.09 Cloudy BKN065 OVC075 17 11     70%     1026.4        
Oct 17 22:55 NE 5 16.09 Cloudy SCT065 SCT075 OVC100 16 12     75%     1026.4        
Oct 17 22:35 NE 5 16.09 Cloudy OVC100 17 12     74%     1026.1        
Oct 17 22:15 Calm 16.09 Cloudy OVC100 16 12     77%     1026.4        
Oct 17 21:55 Calm 16.09 Cloudy OVC110 17 12     76%     1026.4        
Oct 17 21:35 Calm 16.09 Clear   17 13     76%     1026.1        
Oct 17 21:15 Calm 16.09 Clear   17 13     75%     1026.1        
Oct 17 20:55 Calm 16.09 Clear   17 13     75%     1026.1        
Oct 17 20:35 Calm 16.09 Cloudy BKN080 OVC085 18 13     74%     1026.1        
Oct 17 20:15 Calm 16.09 Cloudy OVC080 18 13     75%     1026.1        
Oct 17 19:55 Calm 16.09 Cloudy BKN080 OVC120 18 14     75%     1025.7        
Oct 17 19:35 Calm 16.09 Cloudy OVC070 18 14     77%     1025.7        
Oct 17 19:15 Calm 16.09 Cloudy OVC070 18 14     76%     1025.4        
Oct 17 18:55 Calm 16.09 Cloudy OVC070 18 14     76%     1025.4        
Oct 17 18:35 Calm 16.09 Cloudy BKN070 OVC085 18 14     75%     1025.1        
Oct 17 18:15 Calm 16.09 Cloudy BKN080 OVC085 19 14     75%     1024.7        
Oct 17 17:55 Calm 16.09 Cloudy SCT070 OVC080 19 13     71%     1024.7        
Oct 17 17:35 Calm 16.09 Cloudy OVC060 19 13     68%     1024.4        
Oct 17 17:15 N 5 16.09 Cloudy BKN065 OVC075 20 14     68%     1024.7        
Oct 17 16:55 Calm 16.09 Cloudy BKN070 OVC080 20 14     68%     1024.4        
Oct 17 16:35 N 8 16.09 Cloudy BKN070 OVC080 20 14     67%     1024.4        
Oct 17 16:15 NNW 9 16.09 Cloudy SCT060 BKN070 OVC080 21 15     69%     1024.4        
Oct 17 15:55 Calm 16.09 Cloudy SCT060 OVC070 21 16     73%     1024.4        
Oct 17 15:35 NNE 5 16.09 Cloudy OVC070 20 16     74%     1024.4        
Oct 17 15:15 Calm 16.09 Cloudy SCT060 OVC070 20 16     77%     1024.1        
Oct 17 14:55 N 5 16.09 Cloudy OVC065 20 16     78%     1024.4        
Oct 17 14:35 NNW 11 16.09 Cloudy BKN065 OVC080 20 16     78%     1024.4        
Oct 17 14:15 N 8 16.09 Cloudy OVC065 20 16     80%     1024.1        
Oct 17 13:55 N 5 16.09 Cloudy OVC065 20 16     78%     1024.1        
Oct 17 13:35 Calm 16.09 Cloudy OVC065 20 17     80%     1024.1        
Oct 17 13:15 NNE 5 16.09 Cloudy SCT013 OVC065 20 17     85%     1024.4        
Oct 17 12:55 NNE 9 16.09 Cloudy SCT013 OVC065 19 18     92%     1024.7        
Oct 17 12:35 Calm 16.09 Cloudy BKN013 OVC065 19 18     94%     1025.1        
Oct 17 12:15 N 8 16.09 Cloudy BKN013 OVC065 19 18     96%     1025.1        
Oct 17 11:55 Calm 16.09 Cloudy OVC011 19 19     96%     1025.4        
Oct 17 11:35 Calm 16.09 Cloudy OVC011 19 19     96%     1025.7        
Oct 17 11:15 NNE 5 16.09 Cloudy OVC011 19 19     98%     1025.4        
Oct 17 10:55 Calm 16.09 Cloudy OVC009 19 19     100%     1025.4        
Oct 17 10:35 Calm 16.09 Cloudy BKN009 BKN023 OVC048 19 19     100%     1025.1        
Oct 17 10:15 Calm 16.09 Cloudy BKN009 BKN033 OVC060 19 19     100%     1025.1        
Oct 17 09:55 NNE 5 16.09 Cloudy SCT009 OVC060 18 18     100%     1024.7        
Oct 17 09:35 Calm 16.09 Cloudy OVC060 18 18     100%     1024.7        
Oct 17 09:15 Calm 16.09 Cloudy OVC060 18 18     100%     1024.4        
Oct 17 08:55 ENE 5 16.09 Cloudy BKN060 BKN070 OVC080 18 18     100%     1024.4        
Oct 17 08:35 NE 11 16.09 Cloudy SCT060 OVC070 18 18     100%     1024.4        
Oct 17 08:15 NE 9 16.09 Light Drizzle SCT011 BKN060 OVC080 17 17     100%     1024.4        
Oct 17 07:55 NE 5 16.09 Light Rain OVC011 18 18     100%     1024.1        
Oct 17 07:35 NE 9 16.09 Light Rain OVC009 18 18     100%     1023.7        
Oct 17 07:15 NE 5 16.09 Rain OVC009 18 18     100%     1023.7        
Oct 17 06:55 NE 8 16.09 Cloudy SCT009 BKN015 OVC060 18 18     100%     1023.7        
Oct 17 06:35 Calm 16.09 Cloudy SCT009 BKN060 OVC120 18 18     100%     1023.7        
Oct 17 06:15 Calm 16.09 Cloudy SCT060 BKN075 OVC120 18 18     100%     1023.4        
Oct 17 05:55 Calm 16.09 Cloudy SCT009 BKN060 OVC120 18 18     100%     1022.7        
Oct 17 05:35 NE 5 16.09 Light Rain BKN007 BKN050 OVC075 18 18     100%     1022.7        
Oct 17 05:15 Calm 16.09 Cloudy OVC007 18 18     100%     1022.7        
Oct 17 04:55 Calm 16.09 Cloudy OVC007 18 18     100%     1022.7        
Oct 17 04:35 Calm 11.27 Light Rain BKN007 OVC080 18 18     100%     1022.4        
Oct 17 04:15 N 5 16.09 Light Rain OVC007 18 18     100%     1022.4        
Oct 17 03:55 NE 9 11.27 Light Rain OVC005 18 18     100%     1022        
Oct 17 03:35 Calm 16.09 Cloudy OVC005 18 18     100%     1021.7        
Oct 17 03:15 NNE 5 16.09 Cloudy OVC005 18 18     100%     1022        
Oct 17 02:55 Calm 16.09 Cloudy OVC005 18 18     100%     1021.7        
Oct 17 02:35 NNE 5 16.09 Cloudy BKN005 OVC048 18 18     100%     1021.7        
Oct 17 02:15 N 5 16.09 Cloudy OVC048 18 18     100%     1021.7        
Oct 17 01:55 Calm 16.09 Cloudy OVC046 18 18     100%     1021.3        
Oct 17 01:35 Calm 16.09 Cloudy OVC048 18 18     100%     1021.3        
Oct 17 01:15 Calm 16.09 Mostly Cloudy SCT043 BKN050 BKN120 18 18     100%     1021        
Oct 17 00:55 Calm 16.09 Partly Cloudy SCT120 18 18     100%     1021        
Oct 17 00:35 Calm 16.09 Mostly Cloudy BKN110 18 18     100%     1021        
Oct 17 00:15 Calm 16.09 Mostly Cloudy BKN110 18 18     100%     1021        
Oct 16 23:55 Calm 16.09 Mostly Cloudy BKN110 18 18     100%     1021        
Oct 16 23:35 Calm 16.09 Mostly Cloudy BKN110 19 19     100%     1021.3        
Oct 16 22:55 Calm 16.09 Mostly Cloudy BKN110 19 19     100%     1021.7        
Oct 16 22:35 NE 5 16.09 Partly Cloudy SCT110 19 19     99%     1021.7        
Oct 16 22:15 ENE 5 16.09 Clear CLR 19 19     97%     1021.7        
Oct 16 21:55 Calm 16.09 Partly Cloudy SCT110 19 19     96%     1021.7        
Oct 16 21:35 ENE 8 16.09 Mostly Cloudy BKN026 BKN110 20 19     94%     1021.3        
Oct 16 21:15 ENE 9 16.09 Cloudy SCT017 OVC024 20 19     95%     1021.3        
Oct 16 20:55 NE 9 16.09 Cloudy SCT009 OVC015 19 19     96%     1021.3        
Oct 16 20:35 ENE 9 16.09 Cloudy BKN007 OVC015 19 19     96%     1021.7        
Oct 16 20:15 NNE 9 16.09 Cloudy OVC007 20 20     100%     1021.7        
Oct 16 19:55 NNE 9 16.09 Cloudy OVC009 20 20     100%     1021.7        
Oct 16 19:35 NNE 8 16.09 Clear   20 19     92%     1021.7        
Oct 16 19:15 NE 8 16.09 Clear   21 19     90%     1021.3        
Oct 16 18:55 N 11 16.09 Clear   21 19     89%     1021        
Oct 16 18:35 N 5 16.09 Cloudy BKN021 OVC100 22 20     89%   22 1020.3        
Oct 16 18:15 Calm 16.09 Cloudy OVC100 22 20     87%   22 1020        
Oct 16 17:55 Calm 16.09 Cloudy OVC090 22 20     87%   23 1020        
Oct 16 17:35 NNE 8 16.09 Mostly Cloudy BKN100 23 20     85%   23 1020        
Oct 16 17:15 N 8 16.09 Mostly Cloudy BKN110 23 20     84%   24 1019.7        
Oct 16 16:55 N 8 16.09 Cloudy OVC100 24 21     82%   24 1019.7        
Oct 16 16:35 NNW 5 16.09 Mostly Cloudy BKN095 24 21     81%   25 1019.3        
Oct 16 16:15 NNE 5 16.09 Partly Cloudy SCT110 25 21     80%   25 1019        
Oct 16 15:55 NNE 8 16.09 Partly Cloudy SCT110 25 21     80%   25 1019.3        
Oct 16 15:35 N 5 16.09 Mostly Cloudy BKN110 25 21     78%   26 1019.3        
Oct 16 15:15 WNW 5 16.09 Cloudy OVC110 25 21     79%   26 1019.3        
Oct 16 14:55 NW 8 16.09 Cloudy SCT023 OVC110 25 21     79%   26 1019.3        
Oct 16 14:35 Calm 16.09 Cloudy OVC023 25 21     78%   25 1019.7        
Oct 16 14:15 N 5 16.09 Cloudy OVC019 25 21     78%   26 1019.7        
Oct 16 13:55 NNW 5 16.09 Cloudy OVC017 24 21     80%   25 1020        
Oct 16 13:35 Calm 16.09 Cloudy OVC017 24 20     81%   24 1020        
Oct 16 13:15 Calm 16.09 Cloudy OVC017 23 20     82%   24 1020.3        
Oct 16 12:55 N 5 16.09 Cloudy OVC017 23 20     82%   24 1020.7        
Oct 16 12:35 N 5 16.09 Cloudy OVC019 23 20     81%   24 1020.7        
Oct 16 12:15 Calm 16.09 Cloudy OVC019 23 20     82%   24 1021        
Oct 16 11:55 E 8 16.09 Cloudy OVC019 24 20     79%   24 1021        
Oct 16 11:35 Calm 16.09 Cloudy OVC021 23 20     86%   23 1021.3        
Oct 16 11:15 NNE 5 16.09 Cloudy SCT009 OVC019 22 20     90%   22 1021.7        
Oct 16 10:55 NE 8 16.09 Cloudy BKN009 OVC019 21 20     94%     1022        
Oct 16 10:35 Calm 16.09 Cloudy OVC009 20 20     96%     1022        
Oct 16 10:15 NE 8 16.09 Cloudy OVC009 20 20     98%     1022.4        
Oct 16 09:55 NW 8 16.09 Cloudy OVC009 20 20     98%     1022.4        
Oct 16 09:35 NNE 5 16.09 Cloudy OVC007 20 20     99%     1022        
Oct 16 09:15 NE 8 16.09 Cloudy OVC007 19 19     100%     1022        
Oct 16 08:55 NE 9 16.09 Cloudy OVC007 19 19     100%     1021.7        
Oct 16 08:35 NE 13 16.09 Cloudy OVC005 19 19     100%     1021.3        
Oct 16 08:15 NE 11 16.09 Cloudy OVC005 19 19     100%     1021.3        
Oct 16 07:55 NE 5 11.27 Cloudy OVC005 19 19     100%     1021.3        
Oct 16 07:35 Calm 8.05 Fog/Mist OVC005 19 19     100%     1021.3        
Oct 16 07:15 NNE 8 8.05 Fog/Mist OVC005 19 19     100%     1021        
Oct 16 06:55 NE 5 8.05 Fog/Mist OVC005 20 20     100%     1021        
Oct 16 06:35 NNE 8 8.05 Fog/Mist OVC005 20 20     100%     1021        
Oct 16 06:15 NNE 5 11.27 Cloudy OVC005 20 20     100%     1021        
Oct 16 05:55 N 5 11.27 Cloudy OVC005 21 21     100%     1020.7        
Oct 16 05:35 NE 8 16.09 Cloudy OVC007 21 21     100%     1020.3        
Oct 16 05:15 Calm 16.09 Cloudy SCT007 OVC028 21 21     100%     1020.3        
Oct 16 04:55 Calm 16.09 Cloudy SCT007 OVC032 21 21     100%     1020        
Oct 16 04:35 Calm 16.09 Cloudy SCT034 SCT046 OVC110 21 21     100%     1020        
Oct 16 04:15 Calm 16.09 Cloudy OVC110 21 21     100%   22 1019.7        
Oct 16 03:55 Calm 16.09 Cloudy OVC100 21 21     100%   22 1019.7        
Oct 16 03:35 Calm 16.09 Cloudy OVC100 21 21     100%   22 1019.7        
Oct 16 03:15 Calm 16.09 Cloudy BKN090 OVC110 21 21     100%     1020        
Oct 16 02:55 Calm 16.09 Cloudy BKN090 OVC110 21 21     100%   22 1019.7        
Oct 16 02:35 Calm 16.09 Cloudy OVC100 21 21     100%     1020        
Oct 16 02:15 Calm 16.09 Cloudy OVC100 21 21     100%     1020        
Oct 16 01:55 Calm 16.09 Mostly Cloudy BKN100 21 21     100%     1020        
Oct 16 01:35 Calm 16.09 Mostly Cloudy BKN100 21 21     100%     1020        
Oct 16 01:15 Calm 16.09 Mostly Cloudy BKN110 21 21     100%     1020        
Oct 16 00:55 Calm 16.09 Mostly Cloudy BKN110 21 21     100%     1019.7        
Oct 16 00:35 Calm 16.09 Partly Cloudy SCT100 SCT110 21 21     100%     1020        
Oct 16 00:15 Calm 16.09 Mostly Cloudy BKN100 21 21     100%   22 1020        
Oct 15 23:55 Calm 16.09 Partly Cloudy SCT100 21 21     100%   22 1020        
Oct 15 23:35 Calm 16.09 Mostly Cloudy BKN110 22 22     100%   23 1020        
Oct 15 23:15 Calm 16.09 Cloudy OVC110 22 22     100%   23 1020        
Oct 15 22:55 ENE 5 16.09 Mostly Cloudy BKN110 22 22     99%   23 1020        
Oct 15 22:35 Calm 16.09 Mostly Cloudy BKN110 22 22     99%   23 1020.3        
Oct 15 22:15 Calm 16.09 Cloudy OVC110 23 22     98%   23 1020.7        
Oct 15 21:55 ESE 5 16.09 Cloudy SCT048 SCT080 OVC110 22 22     97%   23 1020.7        
Oct 15 21:35 Calm 16.09 Cloudy BKN048 BKN070 OVC110 23 21     91%   24 1020.7        
Oct 15 21:15 Calm 16.09 Cloudy BKN048 OVC110 23 21     92%   23 1020.7        
Oct 15 20:55 Calm 16.09 Cloudy OVC110 23 21     91%   23 1020.3        
Oct 15 20:35 Calm 16.09 Cloudy OVC110 23 21     88%   24 1020        
Oct 15 20:15 Calm 16.09 Cloudy OVC110 23 21     87%   24 1020        
Oct 15 19:55 Calm 16.09 Cloudy OVC110 22 21     94%   23 1020        
Oct 15 19:35 Calm 16.09 Mostly Cloudy BKN100 BKN120 22 21     93%   22 1020        
Oct 15 19:15 Calm 16.09 Cloudy BKN100 OVC120 23 21     88%   23 1020        
Oct 15 18:55 Calm 16.09 Cloudy BKN100 OVC120 22 21     91%   23 1019.7        
Oct 15 18:35 Calm 16.09 Cloudy BKN100 OVC120 23 21     90%   23 1019.3        
Oct 15 18:15 Calm 16.09 Cloudy BKN100 OVC120 25 20     76%   26 1019        
Oct 15 17:55 Calm 16.09 Cloudy BKN100 OVC120 26 20     69%   28 1019        
Oct 15 17:35 Calm 16.09 Mostly Cloudy BKN100 BKN120 28 20     61%   29 1019        
Oct 15 17:15 Calm 16.09 Cloudy SCT085 OVC110 28 20     60%   29 1019.3        
Oct 15 16:55 Calm 16.09 Cloudy BKN100 OVC120 29 20     58%   30 1019        
Oct 15 16:35 NW 9 16.09 Cloudy OVC100 29 20     58%   30 1019        
Oct 15 16:15 Calm 16.09 Mostly Cloudy SCT080 BKN100 BKN120 29 20     59%   30 1019        
Oct 15 15:55 W 5 16.09 Cloudy SCT080 BKN100 OVC120 29 20     58%   30 1019        
Oct 15 15:35 WSW 5 16.09 Cloudy BKN080 OVC100 29 20     57%   30 1019.3        
Oct 15 15:15 W 11 16.09 Cloudy SCT070 BKN090 OVC110 28 19     58%   30 1019.3        
Oct 15 14:55 WSW 9 16.09 Cloudy SCT045 BKN090 OVC110 29 20     57%   30 1019        
Oct 15 14:35 W 11 16.09 Cloudy SCT047 BKN060 OVC120 29 19     54%   30 1019.3        
Oct 15 14:15 WSW 13 16.09 Cloudy BKN050 OVC060 29 19     57%   30 1019.3        
Oct 15 13:55 WSW 11 16.09 Cloudy SCT041 OVC050 28 19     60%   29 1019.3        
Oct 15 13:35 SW 11 16.09 Mostly Cloudy SCT041 SCT050 BKN110 28 19     60%   29 1019.3        
Oct 15 13:15 SW 13 16.09 Mostly Cloudy BKN110 28 20     61%   30 1019.7        
Oct 15 12:55 W 13 16.09 Mostly Cloudy SCT034 BKN110 27 20     64%   28 1019.7        
Oct 15 12:35 W 15 16.09 Mostly Cloudy SCT034 SCT040 BKN110 27 20     65%   29 1020        
Oct 15 12:15 SW 15 16.09 Mostly Cloudy SCT025 SCT032 BKN110 27 20     67%   29 1020        
Oct 15 11:55 W 13 16.09 Cloudy OVC023 27 21     72%   28 1020.3        
Oct 15 11:35 SW 13 16.09 Cloudy OVC021 27 22     72%   29 1020.7        
Oct 15 11:15 SSW 13 16.09 Cloudy BKN023 BKN034 OVC110 26 22     77%   27 1020.7        
Oct 15 10:55 SW 11 16.09 Cloudy BKN021 BKN028 OVC110 25 21     78%   26 1020.7        
Oct 15 10:35 SSW 11 16.09 Mostly Cloudy BKN019 BKN032 BKN110 26 21     77%   26 1020.7        
Oct 15 10:15 S 9 16.09 Mostly Cloudy BKN017 BKN026 BKN110 25 21     76%   26 1020.7        
Oct 15 09:55 SSE 5 16.09 Mostly Cloudy BKN017 BKN021 BKN026 24 20     79%   24 1021        
Oct 15 09:35 Calm 16.09 Cloudy OVC015 23 19     79%   24 1020.7        
Oct 15 09:15 Calm 16.09 Cloudy BKN017 OVC030 22 19     84%   22 1021        
Oct 15 08:55 S 5 16.09 Cloudy SCT020 BKN029 OVC036 22 19     82%   22 1020.7        
Oct 15 08:35 Calm 16.09 Cloudy SCT020 BKN036 OVC110 21 18     83%     1020.7        
Oct 15 08:15 Calm 16.09 Mostly Cloudy BKN110 20 18     90%     1020.3        
Oct 15 07:55 Calm 16.09 Mostly Cloudy BKN110 18 18     100%     1020        
Oct 15 07:35 Calm 16.09 Mostly Cloudy BKN110 16 16     100%     1020        
Oct 15 07:15 Calm 16.09 Mostly Cloudy BKN110 16 16     100%     1020        
Oct 15 06:55 Calm 16.09 Mostly Cloudy BKN110 15 15     100%     1019.7        
Oct 15 06:35 Calm 16.09 Mostly Cloudy BKN110 16 16     100%     1019.3        
Oct 15 06:15 Calm 16.09 Mostly Cloudy BKN110 17 16     93%     1019.3        
Oct 15 05:55 Calm 16.09 Clear   18 16     88%     1019.3        
Oct 15 05:35 SE 5 16.09 Cloudy OVC110 18 16     86%     1019        
Oct 15 05:15 Calm 16.09 Cloudy OVC110 19 16     84%     1019        
Oct 15 04:55 Calm 16.09 Mostly Cloudy BKN110 18 16     85%     1018.6        
Oct 15 04:35 Calm 16.09 Mostly Cloudy BKN110 18 16     90%     1018.6        
Oct 15 04:15 Calm 16.09 Mostly Cloudy BKN110 19 16     85%     1018.6        
Oct 15 03:55 Calm 16.09 Mostly Cloudy BKN110 19 16     79%     1018.6        
Oct 15 03:35 Calm 16.09 Mostly Cloudy BKN110 19 16     83%     1018.3        
Oct 15 03:15 ESE 5 16.09 Cloudy OVC110 19 16     81%     1018.3        
Oct 15 02:55 Calm 16.09 Cloudy OVC110 19 16     81%     1018.6        
Oct 15 02:35 Calm 16.09 Mostly Cloudy BKN110 19 16     82%     1019        
Oct 15 02:15 Calm 16.09 Mostly Cloudy BKN110 18 17     98%     1019        
Oct 15 01:55 Calm 16.09 Mostly Cloudy BKN110 17 17     100%     1019        
Oct 15 01:35 Calm 16.09 Cloudy OVC110 17 17     100%     1018.6        
Oct 15 01:15 Calm 16.09 Mostly Cloudy BKN110 17 17     99%     1018.6        
Oct 15 00:55 Calm 16.09 Mostly Cloudy BKN110 17 17     100%     1018.6        
Oct 15 00:35 Calm 16.09 Mostly Cloudy BKN110 17 17     100%     1018.6        
Oct 15 00:15 Calm 16.09 Clear   17 17     100%     1018.6        
Oct 14 23:55 Calm 16.09 Clear   18 18     100%     1018.6        
Oct 14 23:35 Calm 16.09 Mostly Cloudy BKN120 18 18     99%     1018.6        
Oct 14 23:15 Calm 16.09 Mostly Cloudy BKN120 18 17     95%     1018.6        
Oct 14 22:55 Calm 16.09 Mostly Cloudy BKN120 18 17     93%     1019        
Oct 14 22:35 Calm 16.09 Partly Cloudy SCT120 19 18     95%     1019.3        
Oct 14 22:15 Calm 16.09 Partly Cloudy SCT120 19 18     94%     1019        
Oct 14 21:55 Calm 16.09 Partly Cloudy SCT120 19 18     94%     1019        
Oct 14 21:35 Calm 16.09 Partly Cloudy SCT120 19 18     95%     1019        
Oct 14 21:15 Calm 16.09 Clear CLR 19 17     89%     1018.6        
Oct 14 20:55 Calm 16.09 Clear CLR 19 17     92%     1018.3        
Oct 14 20:35 Calm 16.09 Partly Cloudy SCT120 20 17     87%     1018.3        
Oct 14 20:15 Calm 16.09 Partly Cloudy SCT120 21 18     79%   21 1018        
Oct 14 19:55 Calm 16.09 Mostly Cloudy BKN120 22 18     78%   22 1018        
Oct 14 19:35 Calm 16.09 Cloudy OVC120 22 18     76%   22 1018        
Oct 14 19:15 Calm 16.09 Mostly Cloudy BKN120 23 17     68%   23 1017.6        
Oct 14 18:55 Calm 16.09 Partly Cloudy SCT120 24 17     65%   24 1017.3        
Oct 14 18:35 SE 5 16.09 Mostly Cloudy BKN120 24 17     62%   25 1017.3        
Oct 14 18:15 SSE 5 16.09 Mostly Cloudy BKN110 25 17     59%   25 1017.3        
Oct 14 17:55 SSE 8 16.09 Cloudy OVC110 26 16     53%   26 1016.9        
Oct 14 17:35 SSE 9 16.09 Cloudy OVC110 27 16     50%   27 1016.9        
Oct 14 17:15 S 8 16.09 Cloudy OVC110 28 16     48%   28 1016.9        
Oct 14 16:55 S 11 16.09 Cloudy OVC110 28 15     46%   28 1016.6        
Oct 14 16:35 S 13 16.09 Cloudy OVC110 29 16     46%   29 1016.6        
Oct 14 16:15 S 13 16.09 Cloudy OVC110 28 16     46%   28 1016.9        
Oct 14 15:55 S 11 16.09 Cloudy OVC110 29 16     45%   29 1016.6        
Oct 14 15:35 SSW 13 16.09 Mostly Cloudy BKN110 29 15     44%   29 1016.9        
Oct 14 15:15 S 13 16.09 Mostly Cloudy BKN110 29 16     44%   29 1016.9        
Oct 14 14:55 SW 9 16.09 Mostly Cloudy BKN110 29 15     43%   29 1016.9        
Oct 14 14:35 SSW 9 16.09 Mostly Cloudy BKN110 28 16     46%   29 1016.9        
Oct 14 14:15 SSW 9 16.09 Cloudy OVC100 28 15     45%   28 1016.9        
Oct 14 13:55 S 13 16.09 Cloudy OVC110 28 15     44%   28 1016.9        
Oct 14 13:35 SSE 17 16.09 Cloudy OVC110 29 15     43%   28 1016.9        
Oct 14 13:15 SSW 15 16.09 Mostly Cloudy BKN110 29 15     44%   28 1017.3        
Oct 14 12:55 SSW 13 16.09 Clear CLR 28 14     43%   28 1017.6        
Oct 14 12:35 SW 13 16.09 Partly Cloudy SCT100 SCT120 28 15     44%   28 1018        
Oct 14 12:15 SSW 11 16.09 Partly Cloudy SCT110 28 15     47%   28 1018.3        
Oct 14 11:55 S 5 16.09 Clear CLR 27 16     49%   27 1018.3        
Oct 14 11:35 SW 13 16.09 Partly Cloudy SCT110 27 16     51%   27 1018.6        
Oct 14 11:15 SW 13 16.09 Clear CLR 26 16     53%   26 1019        
Oct 14 10:55 SW 11 16.09 Clear CLR 26 16     54%   26 1018.6        
Oct 14 10:35 SW 13 16.09 Clear CLR 25 16     55%   25 1019        
Oct 14 10:15 SSE 11 16.09 Clear CLR 25 16     58%   25 1018.6        
Oct 14 09:55 S 9 16.09 Clear CLR 24 16     60%   24 1018.6        
Oct 14 09:35 SSE 8 16.09 Partly Cloudy SCT120 23 16     65%   23 1018.3        
Oct 14 09:15 ESE 5 16.09 Mostly Cloudy BKN120 22 16     70%   22 1018.3        
Oct 14 08:55 Calm 16.09 Cloudy OVC120 20 16     77%     1018        
Oct 14 08:35 Calm 16.09 Cloudy OVC110 19 16     79%     1018        
Oct 14 08:15 Calm 16.09 Cloudy OVC110 19 16     83%     1018        
Oct 14 07:55 Calm 16.09 Cloudy OVC120 18 15     87%     1018        
Oct 14 07:35 SSE 5 16.09 Mostly Cloudy BKN120 17 16     95%     1017.6        
Oct 14 07:15 Calm 16.09 Clear CLR 16 15     94%     1018        
Oct 14 06:55 Calm 16.09 Clear CLR 17 15     89%     1017.6        
Oct 14 06:35 Calm 16.09 Clear CLR 17 15     86%     1017.3        
Oct 14 06:15 Calm 16.09 Clear CLR 18 15     85%     1016.9        
Oct 14 05:55 Calm 16.09 Clear CLR 18 15     84%     1016.9        
Oct 14 05:35 SE 9 16.09 Clear CLR 18 15     84%     1016.9        
Oct 14 05:15 ESE 5 16.09 Clear CLR 18 15     85%     1016.6        
Oct 14 04:55 ESE 8 16.09 Partly Cloudy SCT110 17 15     87%     1016.6        
Oct 14 04:35 Calm 16.09 Mostly Cloudy BKN110 18 15     85%     1016.6        
Oct 14 04:15 Calm 16.09 Partly Cloudy SCT120 18 15     84%     1016.6        
Oct 14 03:55 ESE 5 16.09 Partly Cloudy SCT110 18 15     85%     1015.9        
Oct 14 03:35 Calm 16.09 Partly Cloudy SCT110 18 15     85%     1016.3        
Oct 14 03:15 Calm 16.09 Partly Cloudy SCT110 17 15     85%     1016.3        
Oct 14 02:55 ESE 9 16.09 Partly Cloudy SCT095 17 15     86%     1015.9        
Oct 14 02:35 SE 9 16.09 Partly Cloudy SCT095 17 15     85%     1015.9        
Oct 14 02:15 SE 5 16.09 Partly Cloudy SCT085 18 15     84%     1016.3        
Oct 14 01:55 ESE 8 16.09 Partly Cloudy SCT085 17 15     87%     1015.6        
Oct 14 01:35 Calm 16.09 Clear CLR 17 16     96%     1015.9        
Oct 14 01:15 Calm 16.09 Clear CLR 17 16     99%     1015.9        
Oct 14 00:55 Calm 16.09 Clear CLR 16 16     100%     1016.3        
Oct 14 00:35 Calm 16.09 Clear CLR 17 15     92%     1016.6        
Oct 14 00:15 Calm 16.09 Clear CLR 18 15     85%     1016.3        
Oct 13 23:55 Calm 16.09 Clear CLR 18 15     84%     1015.9        
Oct 13 23:35 SE 8 16.09 Clear CLR 17 16     90%     1015.9        
Oct 13 23:15 Calm 16.09 Clear CLR 16 16     100%     1016.3        
Oct 13 22:55 Calm 16.09 Clear CLR 16 16     100%     1016.3        
Oct 13 22:35 Calm 16.09 Clear CLR 16 16     100%     1016.3        
Oct 13 22:15 Calm 16.09 Clear CLR 16 16     100%     1016.3        
Oct 13 21:55 Calm 16.09 Clear CLR 16 16     100%     1016.3        
Oct 13 21:35 Calm 16.09 Clear CLR 16 16     100%     1016.3        
Oct 13 21:15 Calm 16.09 Clear CLR 16 16     100%     1016.3        
Oct 13 20:55 Calm 16.09 Clear CLR 17 17     100%     1015.9        
Oct 13 20:35 Calm 16.09 Clear CLR 16 16     100%     1015.9        
Oct 13 20:15 Calm 16.09 Clear CLR 17 17     99%     1015.9        
Oct 13 19:55 Calm 16.09 Clear CLR 17 16     93%     1015.6        
Oct 13 19:35 Calm 16.09 Clear CLR 18 16     89%     1015.2        
Oct 13 19:15 Calm 16.09 Clear CLR 18 16     89%     1014.9        
Oct 13 18:55 Calm 16.09 Clear CLR 18 16     86%     1014.9        
Oct 13 18:35 Calm 16.09 Clear CLR 19 16     83%     1014.2        
Oct 13 18:15 Calm 16.09 Clear CLR 21 15     68%   21 1014.2        
Oct 13 17:55 Calm 16.09 Clear CLR 22 15     62%   22 1014.2        
Oct 13 17:35 Calm 16.09 Clear CLR 23 14     57%   23 1014.2        
Oct 13 17:15 Calm 16.09 Partly Cloudy SCT048 23 14     58%   23 1013.9        
Oct 13 16:55 Calm 16.09 Mostly Cloudy BKN046 24 14     55%   24 1014.2        
Oct 13 16:35 WNW 8 16.09 Cloudy OVC046 24 14     55%   24 1014.2        
Oct 13 16:15 Calm 16.09 Mostly Cloudy BKN048 BKN120 24 14     55%   23 1014.2        
Oct 13 15:55 WNW 9 16.09 Mostly Cloudy SCT046 BKN120 23 14     57%   23 1014.2        
Oct 13 15:35 Calm 16.09 Mostly Cloudy SCT046 BKN120 24 14     54%   24 1014.2        
Oct 13 15:15 Calm 16.09 Mostly Cloudy BKN044 BKN120 24 14     54%   24 1014.2        
Oct 13 14:55 NNW 8 16.09 Mostly Cloudy BKN044 BKN120 24 14     54%   24 1014.2        
Oct 13 14:35 NNW 8 16.09 Mostly Cloudy BKN044 24 14     54%   24 1014.6        
Oct 13 14:15 NE 5 16.09 Clear CLR 24 14     55%   24 1014.9        
Oct 13 13:55 W 8 16.09 Clear CLR 24 14     55%   23 1015.2        
Oct 13 13:35 Calm 16.09 Clear CLR 23 14     55%   23 1015.6        
Oct 13 13:15 Calm 16.09 Clear CLR 23 13     55%   22 1015.6        
Oct 13 12:55 ESE 5 16.09 Clear CLR 23 13     56%   22 1015.9        
Oct 13 12:35 NE 5 16.09 Clear CLR 22 13     57%   22 1016.3        
Oct 13 12:15 NW 5 16.09 Clear CLR 21 12     56%   21 1016.3        
Oct 13 11:55 WNW 5 16.09 Clear CLR 22 13     56%   22 1016.6        
Oct 13 11:35 NNW 8 16.09 Clear CLR 21 12     59%     1016.6        
Oct 13 11:15 Calm 16.09 Clear CLR 20 12     60%     1016.9        
Oct 13 10:55 Calm 16.09 Clear CLR 20 12     59%     1016.9        
Oct 13 10:35 NNE 5 16.09 Clear CLR 20 12     62%     1016.9        
Oct 13 10:15 E 9 16.09 Clear CLR 19 12     64%     1016.9        
Oct 13 09:55 ENE 11 16.09 Clear CLR 19 12     64%     1016.9        
Oct 13 09:35 ENE 11 16.09 Clear CLR 18 12     65%     1016.9        
Oct 13 09:15 Calm 16.09 Clear CLR 17 13     78%     1016.6        
Oct 13 08:55 Calm 16.09 Mostly Cloudy BKN050 16 15     91%     1016.6        
Oct 13 07:55 Calm 16.09 Cloudy OVC049 13 13     100%     1015.9        
Oct 13 07:35 Calm 16.09 Cloudy OVC049 13 13     100%     1015.9        
Oct 13 06:55 Calm 16.09 Mostly Cloudy SCT049 BKN060 11 11     100%     1015.6        
Oct 13 04:55 Calm 16.09 Clear CLR 12 12     100%     1014.2        
Oct 13 04:35 Calm 16.09 Clear CLR 12 12     100%     1014.2        
Oct 13 04:15 Calm 16.09 Clear CLR 13 13     100%     1014.2        
Oct 13 03:35 Calm 16.09 Mostly Cloudy BKN060 14 14     97%     1014.2        
Oct 13 03:15 Calm 16.09 Cloudy OVC060 14 14     100%     1013.9        
Oct 13 01:55 Calm 16.09 Mostly Cloudy BKN080 13 13     100%     1013.9        
Notice The following observation data may not be complete
Oct 13 01:15   16.09 Mostly Cloudy BKN085          %              
Oct 13 00:35 Calm 16.09 Cloudy OVC090 14 14     100%     1013.6        
Oct 13 00:15 Calm 16.09 Cloudy OVC090 14 14     100%     1014.2        
Oct 12 23:35 Calm 16.09 Cloudy OVC100 13 13     100%     1013.9        
Oct 12 23:15 Calm 16.09 Mostly Cloudy BKN110 13 13     100%     1013.9        
Oct 12 22:35 Calm 16.09 Clear CLR 12 12     100%     1014.2        
Oct 12 22:15 Calm 16.09 Clear CLR 13 13     100%     1014.6        
Oct 12 19:35 W 5 16.09 Clear CLR 14 12     89%     1013.6        
Oct 12 19:15 W 8 16.09 Clear CLR 14 12     89%     1013.2        
Oct 12 18:55 Calm 16.09 Clear CLR 16 13     80%     1012.9        
Oct 12 18:15 Calm 16.09 Clear CLR 20 11     55%     1012.5        
Oct 12 17:55 Calm 16.09 Clear CLR 21 10     48%     1012.5        
Oct 12 17:35 WNW 8 16.09 Clear CLR 22 10     46%   21 1012.5        
Oct 12 16:55 NW 5 16.09 Clear CLR 23 9     42%   22 1012.9        
Oct 12 15:55 NNW 8 16.09 Clear CLR 23 9     42%   22 1013.2        
Oct 12 15:15 NNW 8 16.09 Clear CLR 22 9     41%   22 1013.2        
Oct 12 12:15 NNW 8 16.09 Clear CLR 20 7     45%     1015.9        
Notice The following observation data may not be complete
Oct 12 11:15   16.09 Clear CLR          %              
Oct 12 09:55 NE 9 16.09 Clear CLR 16 8     62%     1016.6        
Oct 12 09:35 NE 9 16.09 Clear CLR 15 8     65%     1016.6        
Oct 12 07:55 N 5 16.09 Clear CLR 12 9     82%     1016.3        
Notice The following observation data may not be complete
Oct 12 07:35   16.09 Clear CLR          %              
Oct 12 06:35 Calm 16.09 Clear CLR 12 9     82%     1015.9        
Oct 12 06:15 Calm 16.09 Clear CLR 12 9     81%     1015.6        
Oct 12 05:35 NE 8 16.09 Clear CLR 12 9     82%     1015.2        
Oct 12 04:35 NE 5 16.09 Clear CLR 12 10     88%     1014.9        
Notice The following observation data may not be complete
Oct 12 01:15   16.09 Partly Cloudy SCT110          %              
Notice The following observation data may not be complete
Oct 12 00:35   16.09 Partly Cloudy SCT120          %              
Oct 11 22:35 NW 11 16.09 Clear CLR 16 12     74%     1015.2        
Oct 11 22:15 NW 5 16.09 Partly Cloudy SCT110 16 12     74%     1015.2        
Oct 11 21:55 NW 8 16.09 Cloudy OVC110 17 12     75%     1014.9        
Oct 11 20:55 Calm 16.09 Cloudy OVC110 18 12     68%     1014.2        
Notice The following observation data may not be complete
Oct 11 20:35   16.09 Cloudy OVC110          %              
Oct 11 19:15 NW 9 16.09 Mostly Cloudy BKN120 20 13     65%     1013.6        
Notice The following observation data may not be complete
Oct 11 18:15   16.09 Partly Cloudy SCT120          %              
Oct 11 17:35 NNW 9 16.09 Partly Cloudy SCT120 24 13     52%   23 1011.9        
Notice The following observation data may not be complete
Oct 11 17:15   16.09 Partly Cloudy SCT110          %              
Oct 11 16:55 WNW 15 16.09 Partly Cloudy SCT110 25 15     53%   25 1011.9        
Oct 11 16:15 NW 13 16.09 Mostly Cloudy BKN120 26 15     51%   25 1011.9        
Oct 11 15:35 NW 15 16.09 Mostly Cloudy BKN120 26 15     52%   26 1011.9        
Oct 11 12:55 NW 13 16.09 Partly Cloudy SCT032 SCT120 25 17     62%   25 1012.2        
Oct 11 11:55 NW 18 16.09 Mostly Cloudy BKN030 BKN110 24 18     69%   24 1012.5        
Notice The following observation data may not be complete
Oct 11 11:15   16.09 Cloudy OVC026          %              
Oct 11 10:35 NW 17 16.09 Cloudy SCT019 OVC028 23 19     77%   23 1012.2        
Oct 11 10:15 WNW 21 16.09 Cloudy BKN021 OVC028 23 20     85%   23 1011.9        
Notice The following observation data may not be complete
Oct 11 09:35   16.09 Mostly Cloudy SCT017 BKN025 BKN110          %              
Oct 11 08:35 WNW 13 16.09 Cloudy BKN017 OVC028 22 22     96%   23 1010.8        
Oct 11 07:35 NW 13 16.09 Cloudy BKN020 OVC026 23 22     95%   24 1009.5        
May 15 02:15 Calm 16.09 Clear CLR 21 19     91%     1014.9        
May 14 12:35 NNW 5 16.09 Mostly Cloudy SCT060 BKN070 31 18     47%   32 1017.3        
May 13 06:15 Calm 16.09 Clear CLR 15 15     100%     1020.3        
May 12 16:15 W 5 16.09 Clear CLR 32 15     36%   31 1019.3        
May 12 14:35 W 13 16.09 Clear CLR 32 15     37%   31 1020        
May 12 12:15 N 9 16.09 Clear CLR 30 15     39%   30 1021.3        
May 12 01:35 Calm 11.27 Clear CLR 16 16     100%     1019.3        
May 11 23:15 Calm 16.09 Clear CLR 18 18     100%     1019.7        
May 11 21:55 Calm 16.09 Clear CLR 19 19     98%     1019.7        
May 11 21:15 Calm 16.09 Clear CLR 21 19     89%     1019.3        
May 11 17:35 WSW 9 16.09 Clear CLR 30 16     41%   30 1018        
May 11 15:35 SW 9 16.09 Clear CLR 31 15     38%   31 1018.6        
Notice The following observation data may not be complete
May 11 12:35   16.09 Clear CLR          %              
Jun 12 04:15 Calm 16.09 Clear CLR 22 22     100%   23 1020.7        
Jun 12 03:55 Calm 16.09 Clear CLR 23 23     100%   24 1020.7        
Jun 11 21:55 Calm 16.09 Clear   26 22     79%   27 1021        
Jun 11 20:55 SSE 8 16.09 Clear   27 23     79%   29 1020        
Jun 11 17:15 S 9 16.09 Partly Cloudy SCT045 32 22     54%   37 1019        
Jun 11 15:15 SE 13 16.09 Partly Cloudy SCT045 32 22     56%   35 1020        
Jun 11 09:55 S 8 16.09 Mostly Cloudy BKN020 BKN085 28 23     74%   32 1021.7        
Jun 11 09:15 SE 11 16.09 Partly Cloudy SCT016 SCT110 27 23     77%   30 1021.7        
Notice The following observation data may not be complete
Jun 11 02:35   16.09 Clear CLR          %              
Jun 11 02:15 Calm 16.09 Clear   19 19     100%     1019        
Jun 11 00:15 Calm 16.09 Clear CLR 20 20     100%     1019.7        
Jun 10 18:35 SSE 5 16.09 Clear   28 18     54%   29 1017.6        
Jun 10 16:35 SE 8 16.09 Clear CLR 31 16     42%   31 1017.6        
Jun 10 13:35 SSE 13 16.09 Partly Cloudy SCT065 SCT075 31 18     47%   31 1019        
Jun 10 12:55 SSE 5 16.09 Mostly Cloudy SCT060 BKN075 31 17     44%   31 1019.3        
Jun 10 11:35 S 8 16.09 Partly Cloudy SCT065 30 16     42%   30 1019.7        
Jun 10 09:15 Calm 16.09 Partly Cloudy SCT080 SCT100 27 20     68%   28 1019.3        
Jun 10 05:15 Calm 16.09 Mostly Cloudy BKN080 BKN095 17 17     100%     1016.9        
Jun 10 03:15 Calm 16.09 Partly Cloudy SCT060 SCT070 18 18     100%     1016.3        
Jun 10 02:35 Calm 16.09 Partly Cloudy SCT060 18 18     100%     1016.3        
Jun 09 20:35 Calm 16.09 Clear CLR 22 20     86%   23 1014.6        
Jun 09 05:35 Calm 16.09 Partly Cloudy SCT060 16 16     100%     1014.2        
Jun 08 18:35 Calm 16.09 Partly Cloudy SCT110 26 17     56%   26 1011.2        
Jun 08 02:15 Calm 16.09 Clear CLR 16 16     100%     1011.5        
Jun 08 01:55 Calm 16.09 Clear CLR 16 16     97%     1011.5        
Jun 07 17:35 NNE 8 16.09 Clear CLR 28 16     49%   28 1009.8        
Jun 07 11:35 NE 13 16.09 Clear   26 20     69%   28 1009.8        
Jun 07 09:35 NE 11 16.09 Clear CLR 23 18     72%   24 1009.8        
Jun 06 10:55 Calm 16.09 Light Drizzle SCT005 BKN049 OVC055 22 22     100%   23 1009.8   0    
Notice The following observation data may not be complete
Jun 06 05:55   16.09 Cloudy OVC005          %              
Jun 06 04:55 Calm 16.09 Cloudy BKN005 BKN055 OVC070 22 22     100%   23 1009.2        
Jun 06 03:35 Calm 16.09 Light Rain SCT037 SCT048 SCT070 22 22     100%   23 1009.2        
Jun 06 01:55 Calm 16.09 Cloudy SCT035 BKN042 OVC065 22 22     100%   23 1009.5        
Jun 05 15:55 ENE 8 11.27 Rain SCT005 BKN048 OVC100 23 23     100%   25 1009.5   0 1